"2009-05-30 00:00:00",930551,1.876,249.7,3.202,0.074,18.64,108.6425,21.41,22.36,23.33,0,111.1,13.15,22.24,211.7
"2009-05-30 00:00:30",930552,2.091,249.8,3.419,0.135,18.6,108.6505,21.43,22.37,23.17,0,111.1,13.15,22.26,211.8
"2009-05-30 00:01:00",930553,2.205,236.6,2.82,0.088,18.59,108.6505,21.43,22.38,23.07,0,111.1,13.15,22.26,198.6
"2009-05-30 00:01:30",930554,2.153,242.7,3.726,0.097,18.62,108.6528,21.43,22.38,23.04,0,111.1,13.15,22.26,204.7
"2009-05-30 00:02:00",930555,2.443,240.7,3.229,0.174,18.58,108.6528,21.43,22.39,23.03,0,111.1,13.15,22.26,202.7
"2009-05-30 00:02:30",930556,2.161,245.1,3.711,0.1,18.61,108.6537,21.44,22.4,23.01,0,111.1,13.15,22.26,207.1
"2009-05-30 00:03:00",930557,2.191,237.6,2.509,0.116,18.62,108.6543,21.44,22.4,22.94,0,111.1,13.15,22.27,199.6
"2009-05-30 00:03:30",930558,2.21,231.8,2.996,0.115,18.63,108.6534,21.44,22.4,22.97,0,111.1,13.15,22.26,193.8
"2009-05-30 00:04:00",930559,2.439,229.4,0.961,0.139,18.64,108.6568,21.44,22.42,23.16,0,111.1,13.15,22.27,191.4
"2009-05-30 00:04:30",930560,2.476,224.3,3.836,0.052,18.63,108.6583,21.45,22.42,22.97,0,111.1,13.15,22.28,186.3
"2009-05-30 00:05:00",930561,2.368,223,1.897,0.078,18.62,108.6589,21.45,22.41,22.88,0,111.1,13.15,22.28,185.0
"2009-05-30 00:05:30",930562,2.237,226.8,3.77,0.079,18.63,108.6601,21.45,22.41,22.79,0,111,13.15,22.28,188.8
"2009-05-30 00:06:00",930563,2.27,225.7,3.749,0.125,18.63,108.6613,21.46,22.43,22.76,0,111.1,13.15,22.28,187.7
"2009-05-30 00:06:30",930564,2.328,234.4,4.258,0.083,18.66,108.6613,21.46,22.43,22.98,0,111,13.15,22.28,196.4
"2009-05-30 00:07:00",930565,2.703,234,4.191,0.193,18.67,108.6613,21.46,22.45,23.16,0,111,13.15,22.28,196.0
"2009-05-30 00:07:30",930566,2.686,241.8,2.731,0.131,18.67,108.6619,21.46,22.43,23.12,0,111,13.15,22.29,203.8
"2009-05-30 00:08:00",930567,2.009,244.7,4.739,0.185,18.69,108.6619,21.46,22.45,23.01,0,111,13.15,22.29,206.7
"2009-05-30 00:08:30",930568,2.054,244.3,5.074,0.159,18.7,108.6619,21.46,22.45,23.06,0,111,13.14,22.29,206.3
"2009-05-30 00:09:00",930569,2.048,246.8,2.171,0.111,18.71,108.6619,21.46,22.46,23.15,0,111,13.15,22.29,208.8
"2009-05-30 00:09:30",930570,1.949,251.8,2.043,0.095,18.73,108.6619,21.46,22.45,23.12,0,111,13.14,22.29,213.8
"2009-05-30 00:10:00",930571,1.761,255.3,1.876,0.075,18.75,108.6619,21.46,22.45,23.11,0,111,13.14,22.29,217.3
"2009-05-30 00:10:30",930572,1.717,250.2,3.02,0.092,18.72,108.6619,21.46,22.45,23.16,0,111,13.14,22.29,212.2
"2009-05-30 00:11:00",930573,1.756,243.9,2.394,0.062,18.71,108.6619,21.46,22.45,23.2,0,111,13.14,22.29,205.9
"2009-05-30 00:11:30",930574,1.753,249.8,3.186,0.075,18.72,108.6605,21.45,22.44,23.14,0,111,13.15,22.28,211.8
"2009-05-30 00:12:00",930575,1.643,253.4,2.445,0.065,18.75,108.6569,21.45,22.45,23.1,0,111,13.14,22.27,215.4
"2009-05-30 00:12:30",930576,1.604,251,3.339,0.071,18.75,108.6532,21.44,22.45,23.1,0,111,13.14,22.26,213.0
"2009-05-30 00:13:00",930577,1.65,258.6,2.542,0.104,18.72,108.6493,21.43,22.45,23.15,0,111,13.15,22.25,220.6
"2009-05-30 00:13:30",930578,1.612,263.2,2.841,0.049,18.69,108.644,21.41,22.45,23.28,0,111,13.15,22.24,225.2
"2009-05-30 00:14:00",930579,1.516,256.5,7.202,0.078,18.71,108.6395,21.4,22.46,23.23,0,111,13.15,22.23,218.5
"2009-05-30 00:14:30",930580,1.418,255.3,8.51,0.119,18.71,108.6386,21.4,22.45,23.46,0,111,13.15,22.22,217.3
"2009-05-30 00:15:00",930581,1.766,239.1,6.792,0.193,18.68,108.6367,21.39,22.44,23.43,0,111,13.15,22.22,201.1
"2009-05-30 00:15:30",930582,1.554,246.9,10.06,0.129,18.73,108.6347,21.39,22.44,23.54,0,111,13.15,22.21,208.9
"2009-05-30 00:16:00",930583,1.434,241,7.199,0.121,18.75,108.6288,21.37,22.43,23.59,0,111,13.15,22.20,203.0
"2009-05-30 00:16:30",930584,1.366,238.3,5.484,0.102,18.74,108.6282,21.37,22.43,23.63,0,111,13.15,22.20,200.3
"2009-05-30 00:17:00",930585,1.642,230.2,4.013,0.155,18.71,108.6193,21.35,22.4,23.41,0,111,13.15,22.18,192.2
"2009-05-30 00:17:30",930586,2.16,219.8,2.864,0.248,18.69,108.6069,21.32,22.39,23.05,0,111,13.15,22.14,181.8
"2009-05-30 00:18:00",930587,2.623,223.7,2.367,0.082,18.75,108.6068,21.32,22.37,22.71,0,111,13.15,22.14,185.7
"2009-05-30 00:18:30",930588,2.531,222,2.194,0.144,18.77,108.6075,21.32,22.36,22.6,0,111,13.15,22.14,184.0
"2009-05-30 00:19:00",930589,2.378,227.5,3.077,0.182,18.78,108.6112,21.33,22.36,22.6,0,111,13.16,22.15,189.5
"2009-05-30 00:19:30",930590,2.341,218.1,1.916,0.093,18.77,108.6105,21.33,22.37,22.48,0,111,13.16,22.15,180.1
"2009-05-30 00:20:00",930591,2.317,221,3.53,0.113,18.78,108.6114,21.33,22.37,22.45,0,111,13.16,22.15,183.0
"2009-05-30 00:20:30",930592,2.429,232.3,4.683,0.071,18.74,108.6132,21.33,22.35,22.63,0,111,13.16,22.16,194.3
"2009-05-30 00:21:00",930593,2.34,234.7,2.451,0.136,18.78,108.6189,21.35,22.36,22.82,0,111,13.16,22.17,196.7
"2009-05-30 00:21:30",930594,2.242,239.3,3.121,0.084,18.77,108.6186,21.35,22.35,22.85,0,111,13.16,22.17,201.3
"2009-05-30 00:22:00",930595,2.314,234.4,4.168,0.067,18.78,108.6214,21.35,22.35,22.77,0,111,13.16,22.18,196.4
"2009-05-30 00:22:30",930596,2.124,234.1,3.28,0.117,18.8,108.6214,21.35,22.34,22.69,0,111,13.16,22.18,196.1
"2009-05-30 00:23:00",930597,1.864,241.7,5.968,0.129,18.8,108.6197,21.35,22.35,22.75,0,111,13.16,22.18,203.7
"2009-05-30 00:23:30",930598,1.855,250.9,2.984,0.07,18.78,108.6138,21.33,22.34,22.73,0,111,13.16,22.16,212.9
"2009-05-30 00:24:00",930599,2.076,245,1.764,0.087,18.79,108.6049,21.31,22.33,22.78,0,111,13.16,22.14,207.0
"2009-05-30 00:24:30",930600,1.91,245.7,1.725,0.111,18.78,108.6004,21.3,22.33,22.79,0,111,13.16,22.13,207.7
"2009-05-30 00:25:00",930601,1.733,245.3,2.488,0.056,18.74,108.5988,21.3,22.33,22.82,0,111,13.15,22.12,207.3
"2009-05-30 00:25:30",930602,1.905,244.7,2.744,0.081,18.69,108.598,21.29,22.32,22.81,0,111,13.15,22.12,206.7
"2009-05-30 00:26:00",930603,2.091,243.9,3.196,0.086,18.69,108.595,21.29,22.3,22.86,0,111,13.15,22.11,205.9
"2009-05-30 00:26:30",930604,1.967,245.2,6.407,0.144,18.68,108.5971,21.29,22.3,22.94,0,111,13.15,22.12,207.2
"2009-05-30 00:27:00",930605,1.799,254.3,3.971,0.089,18.69,108.5974,21.29,22.31,22.94,0,111,13.15,22.12,216.3
"2009-05-30 00:27:30",930606,2.019,254.3,4.156,0.132,18.67,108.5974,21.29,22.31,22.93,0,111,13.15,22.12,216.3
"2009-05-30 00:28:00",930607,1.933,253.7,2.918,0.126,18.66,108.5974,21.29,22.29,23,0,111,13.15,22.12,215.7
"2009-05-30 00:28:30",930608,2.034,255.2,5.403,0.122,18.63,108.5974,21.29,22.29,23.11,0,111,13.15,22.12,217.2
"2009-05-30 00:29:00",930609,2.172,239.6,7.017,0.1,18.55,108.5974,21.29,22.29,23.16,0,111,13.15,22.12,201.6
"2009-05-30 00:29:30",930610,2.12,248.5,3.105,0.101,18.59,108.5974,21.29,22.29,23.18,0,111,13.15,22.12,210.5
"2009-05-30 00:30:00",930611,2.318,254.1,1.589,0.061,18.57,108.5974,21.29,22.29,23.03,0,111,13.15,22.12,216.1
"2009-05-30 00:30:30",930612,2.308,255.6,1.831,0.078,18.62,108.5974,21.29,22.28,22.84,0,111,13.16,22.12,217.6
"2009-05-30 00:31:00",930613,2.26,254.8,1.678,0.051,18.58,108.5974,21.29,22.29,22.8,0,111,13.16,22.12,216.8
"2009-05-30 00:31:30",930614,2.441,255.6,2.222,0.119,18.63,108.5974,21.29,22.29,22.8,0,111,13.16,22.12,217.6
"2009-05-30 00:32:00",930615,2.518,256.5,1.424,0.084,18.66,108.5974,21.29,22.29,22.92,0,111,13.17,22.12,218.5
"2009-05-30 00:32:30",930616,2.299,251.1,2.829,0.09,18.65,108.5974,21.29,22.3,23.1,0,111,13.17,22.12,213.1
"2009-05-30 00:33:00",930617,2.301,256.4,3.506,0.068,18.65,108.5974,21.29,22.31,23.28,0,111,13.17,22.12,218.4
"2009-05-30 00:33:30",930618,2.471,255.8,1.664,0.118,18.64,108.5974,21.29,22.32,23.42,0,111,13.17,22.12,217.8
"2009-05-30 00:34:00",930619,2.22,260.2,3.469,0.069,18.67,108.5974,21.29,22.31,23.41,0,111,13.16,22.12,222.2
"2009-05-30 00:34:30",930620,1.921,265,2.467,0.166,18.68,108.5974,21.29,22.31,23.23,0,111,13.16,22.12,227.0
"2009-05-30 00:35:00",930621,2.029,255.7,1.183,0.259,18.72,108.5974,21.29,22.3,23.42,0,111,13.16,22.12,217.7
"2009-05-30 00:35:30",930622,2.469,259.2,1.959,0.132,18.79,108.5974,21.29,22.29,23.06,0,111,13.16,22.12,221.2
"2009-05-30 00:36:00",930623,2.338,260,3.032,0.155,18.75,108.5974,21.29,22.3,22.89,0,111,13.16,22.12,222.0
"2009-05-30 00:36:30",930624,2.607,264.1,1.558,0.134,18.73,108.5977,21.29,22.3,22.84,0,111,13.16,22.12,226.1
"2009-05-30 00:37:00",930625,2.209,265.3,3.747,0.113,18.76,108.5974,21.29,22.3,22.91,0,111,13.16,22.12,227.3
"2009-05-30 00:37:30",930626,1.762,263.7,3.464,0.139,18.77,108.5974,21.29,22.3,22.84,0,111,13.16,22.12,225.7
"2009-05-30 00:38:00",930627,1.882,259,4.076,0.148,18.73,108.5974,21.29,22.32,22.82,0,111,13.16,22.12,221.0
"2009-05-30 00:38:30",930628,1.806,255,2.734,0.18,18.77,108.5977,21.29,22.31,22.98,0,111,13.16,22.12,217.0
"2009-05-30 00:39:00",930629,1.867,255.5,5.29,0.193,18.75,108.598,21.29,22.31,23.05,0,111,13.16,22.12,217.5
"2009-05-30 00:39:30",930630,1.467,250.8,5.531,0.119,18.79,108.5984,21.3,22.33,23,0,111,13.16,22.12,212.8
"2009-05-30 00:40:00",930631,1.549,253.7,6.606,0.085,18.78,108.5993,21.3,22.32,22.82,0,111,13.16,22.12,215.7
"2009-05-30 00:40:30",930632,1.544,249.5,4.148,0.053,18.8,108.5999,21.3,22.32,22.77,0,111,13.16,22.13,211.5
"2009-05-30 00:41:00",930633,1.5,254.7,3.553,0.086,18.83,108.6008,21.3,22.33,22.75,0,111,13.17,22.13,216.7
"2009-05-30 00:41:30",930634,1.543,257.9,3.422,0.11,18.84,108.6014,21.3,22.31,22.74,0,111,13.17,22.13,219.9
"2009-05-30 00:42:00",930635,1.49,253.6,3.026,0.101,18.87,108.6002,21.3,22.32,22.69,0,111,13.16,22.13,215.6
"2009-05-30 00:42:30",930636,1.383,250.6,2.947,0.12,18.87,108.6,21.3,22.31,22.66,0,111,13.16,22.13,212.6
"2009-05-30 00:43:00",930637,1.713,257,2.573,0.172,18.9,108.6,21.3,22.31,22.62,0,111,13.16,22.13,219.0
"2009-05-30 00:43:30",930638,1.821,261,2.863,0.082,18.92,108.5986,21.3,22.31,22.55,0,111,13.16,22.12,223.0
"2009-05-30 00:44:00",930639,1.762,257.8,3.258,0.126,18.91,108.593,21.28,22.31,22.54,0,111,13.16,22.11,219.8
"2009-05-30 00:44:30",930640,1.661,262.3,3.256,0.109,18.94,108.5918,21.28,22.31,22.53,0,111,13.16,22.10,224.3
"2009-05-30 00:45:00",930641,1.704,258.4,5.9,0.093,18.95,108.582,21.25,22.31,22.53,0,111,13.16,22.08,220.4
"2009-05-30 00:45:30",930642,1.751,254.2,2.344,0.073,18.97,108.5844,21.26,22.3,22.53,0,111,13.16,22.09,216.2
"2009-05-30 00:46:00",930643,1.577,254.1,1.998,0.055,18.97,108.5811,21.25,22.3,22.55,0,111,13.16,22.08,216.1
"2009-05-30 00:46:30",930644,1.564,255.2,2.184,0.057,18.99,108.5817,21.25,22.3,22.57,0,111,13.16,22.08,217.2
"2009-05-30 00:47:00",930645,1.738,258.8,3.977,0.091,18.98,108.5798,21.25,22.3,22.58,0,111,13.16,22.07,220.8
"2009-05-30 00:47:30",930646,1.705,256.9,3.869,0.189,18.95,108.5814,21.25,22.29,22.62,0,111,13.16,22.08,218.9
"2009-05-30 00:48:00",930647,1.552,253,1.238,0.039,19,108.582,21.25,22.28,22.7,0,111,13.16,22.08,215.0
"2009-05-30 00:48:30",930648,1.461,254.2,2.605,0.06,18.98,108.5851,21.26,22.27,22.76,0,111,13.17,22.09,216.2
"2009-05-30 00:49:00",930649,1.358,253.3,2.749,0.111,18.99,108.5857,21.26,22.29,22.71,0,110.9,13.17,22.09,215.3
"2009-05-30 00:49:30",930650,1.296,253.8,2.759,0.065,19.01,108.589,21.27,22.27,22.67,0,111,13.17,22.10,215.8
"2009-05-30 00:50:00",930651,1.399,261.6,7.239,0.112,19.01,108.5894,21.27,22.27,22.64,0,110.9,13.17,22.10,223.6
"2009-05-30 00:50:30",930652,1.403,261,2.424,0.081,18.96,108.5889,21.27,22.26,22.64,0,110.9,13.17,22.10,223.0
"2009-05-30 00:51:00",930653,1.218,262.8,4.199,0.062,19.02,108.5836,21.26,22.25,22.63,0,110.9,13.17,22.08,224.8
"2009-05-30 00:51:30",930654,1.205,266.9,1.869,0.041,19.01,108.5746,21.23,22.24,22.63,0,110.9,13.17,22.06,228.9
"2009-05-30 00:52:00",930655,1.187,266.7,4.303,0.071,19.02,108.5679,21.22,22.25,22.66,0,110.9,13.17,22.04,228.7
"2009-05-30 00:52:30",930656,1.065,259.4,3.501,0.049,19.04,108.5634,21.21,22.24,22.66,0,110.9,13.17,22.03,221.4
"2009-05-30 00:53:00",930657,1.182,266.4,2.067,0.09,19.02,108.5577,21.19,22.23,22.69,0,110.9,13.17,22.02,228.4
"2009-05-30 00:53:30",930658,1.045,262.3,1.523,0.064,19.08,108.5596,21.2,22.23,22.65,0,110.9,13.17,22.02,224.3
"2009-05-30 00:54:00",930659,1.127,260,4.008,0.059,19.05,108.5623,21.2,22.23,22.66,0,110.9,13.18,22.03,222.0
"2009-05-30 00:54:30",930660,1.163,259.5,3.397,0.08,19.05,108.5639,21.21,22.21,22.65,0,110.9,13.18,22.03,221.5
"2009-05-30 00:55:00",930661,0.888,248.2,7.536,0.158,19,108.5642,21.21,22.22,22.7,0,110.9,13.18,22.03,210.2
"2009-05-30 00:55:30",930662,0.74,247.5,5.731,0.142,19.01,108.5643,21.21,22.2,22.71,0,111,13.18,22.03,209.5
"2009-05-30 00:56:00",930663,0.979,247.9,5.539,0.081,19.04,108.5551,21.18,22.2,22.73,0,110.9,13.18,22.01,209.9
"2009-05-30 00:56:30",930664,0.923,257.8,2.734,0.057,19.1,108.5433,21.15,22.18,22.74,0,110.9,13.18,21.98,219.8
"2009-05-30 00:57:00",930665,0.731,254.1,3.75,0.07,19.06,108.5385,21.14,22.18,22.78,0,110.9,13.18,21.97,216.1
"2009-05-30 00:57:30",930666,0.609,261.2,4.029,0.048,19.04,108.5343,21.13,22.18,22.79,0,110.9,13.18,21.96,223.2
"2009-05-30 00:58:00",930667,0.677,255.7,4.892,0.05,19.04,108.5329,21.13,22.18,22.78,0,110.9,13.18,21.95,217.7
"2009-05-30 00:58:30",930668,0.563,262.3,4.137,0.067,19.02,108.5329,21.13,22.17,22.8,0,110.9,13.18,21.95,224.3
"2009-05-30 00:59:00",930669,0.532,273.3,4.132,0.054,19.02,108.5329,21.13,22.17,22.8,0,110.9,13.18,21.95,235.3
"2009-05-30 00:59:30",930670,0.514,269.9,3.419,0.071,19.04,108.5326,21.13,22.16,22.81,0,110.9,13.17,21.95,231.9
"2009-05-30 01:00:00",930671,0.597,266.9,4.19,0.041,19.04,108.5301,21.12,22.14,22.83,0,110.9,13.17,21.95,228.9
"2009-05-30 01:00:30",930672,0.571,273.5,6.672,0.047,19.05,108.5292,21.12,22.14,22.83,0,110.9,13.17,21.94,235.5
"2009-05-30 01:01:00",930673,0.67,288.3,1.832,0.041,19.1,108.5233,21.1,22.13,22.85,0,110.9,13.17,21.93,250.3
"2009-05-30 01:01:30",930674,0.697,291.5,3.134,0.052,19.08,108.5112,21.07,22.12,22.87,0,110.9,13.17,21.90,253.5
"2009-05-30 01:02:00",930675,0.765,294.7,2.836,0.067,19.05,108.5065,21.06,22.13,22.88,0,110.9,13.17,21.88,256.7
"2009-05-30 01:02:30",930676,0.77,292.7,2.673,0.087,19.1,108.5003,21.04,22.11,22.89,0,110.9,13.17,21.87,254.7
"2009-05-30 01:03:00",930677,0.778,307.3,6.919,0.062,19.05,108.4991,21.04,22.11,22.89,0,110.9,13.17,21.87,269.3
"2009-05-30 01:03:30",930678,0.98,302.5,2.965,0.065,19.06,108.4995,21.04,22.1,22.9,0,110.9,13.17,21.87,264.5
"2009-05-30 01:04:00",930679,0.884,297.1,6.115,0.034,19.09,108.4995,21.04,22.09,22.9,0,110.9,13.17,21.87,259.1
"2009-05-30 01:04:30",930680,1.022,293.2,3.436,0.128,19.1,108.4991,21.04,22.09,22.9,0,110.9,13.18,21.87,255.2
"2009-05-30 01:05:00",930681,0.977,305.2,3.993,0.05,19.07,108.4986,21.04,22.09,22.94,0,110.9,13.18,21.86,267.2
"2009-05-30 01:05:30",930682,0.89,314,4.61,0.101,19.08,108.489,21.01,22.07,23,0,110.9,13.18,21.84,276.0
"2009-05-30 01:06:00",930683,0.994,306.4,5.618,0.033,19.08,108.4753,20.98,22.07,23.15,0,110.9,13.18,21.80,268.4
"2009-05-30 01:06:30",930684,1.063,304.4,3.413,0.112,19.13,108.4741,20.98,22.06,23.17,0,110.9,13.18,21.80,266.4
"2009-05-30 01:07:00",930685,1.189,304.6,5.036,0.189,19.11,108.4688,20.96,22.05,23.13,0,110.9,13.18,21.79,266.6
"2009-05-30 01:07:30",930686,0.973,309.6,1.972,0.044,19.13,108.4721,20.97,22.03,23.03,0,110.9,13.18,21.80,271.6
"2009-05-30 01:08:00",930687,1.184,312.1,4.542,0.19,19.14,108.4737,20.98,22.03,23,0,110.9,13.18,21.80,274.1
"2009-05-30 01:08:30",930688,1.543,319.1,3.627,0.104,19.05,108.4782,20.99,22.03,23.01,0,110.9,13.18,21.81,281.1
"2009-05-30 01:09:00",930689,1.832,323.8,1.957,0.112,19.07,108.4834,21,22.02,23.03,0,110.9,13.19,21.83,285.8
"2009-05-30 01:09:30",930690,2.035,322,1.55,0.093,18.96,108.4839,21,22.01,23.09,0,110.9,13.19,21.83,284.0
"2009-05-30 01:10:00",930691,2.139,325.8,3.407,0.095,19.08,108.4781,20.99,22,23.11,0,110.9,13.19,21.81,287.8
"2009-05-30 01:10:30",930692,2.119,329.1,2.431,0.113,19.09,108.4699,20.97,22,23.16,0,110.9,13.19,21.79,291.1
"2009-05-30 01:11:00",930693,2.308,329.2,1.208,0.039,19.03,108.4654,20.95,21.99,23.2,0,110.9,13.19,21.78,291.2
"2009-05-30 01:11:30",930694,2.175,330.3,1.509,0.11,19.08,108.4641,20.95,21.98,23.22,0,110.9,13.19,21.78,292.3
"2009-05-30 01:12:00",930695,2.449,329.7,2.426,0.134,18.96,108.4591,20.94,21.96,23.24,0,110.9,13.19,21.76,291.7
"2009-05-30 01:12:30",930696,2.631,331.5,1.479,0.155,19,108.4591,20.94,21.96,23.26,0,110.9,13.19,21.76,293.5
"2009-05-30 01:13:00",930697,3.035,335.3,4.914,0.268,19,108.4591,20.94,21.96,23.48,0,110.9,13.19,21.76,297.3
"2009-05-30 01:13:30",930698,2.516,354.5,6.267,0.745,19.06,108.4601,20.94,21.97,24.73,0,110.9,13.19,21.77,316.5
"2009-05-30 01:14:00",930699,2.844,353.6,4.408,0.518,19.08,108.4634,20.95,21.96,24.92,0,110.9,13.19,21.77,315.6
"2009-05-30 01:14:30",930700,3.483,350.4,2.281,0.209,19,108.4661,20.96,21.94,24.71,0,110.9,13.19,21.78,312.4
"2009-05-30 01:15:00",930701,3.482,352.9,4.089,0.793,18.77,108.4634,20.95,21.95,25.34,0,110.9,13.19,21.77,314.9
"2009-05-30 01:15:30",930702,3.851,4.433,8.2,0.843,18.39,108.4462,20.9,21.95,26.86,0,110.9,13.19,21.73,326.4
"2009-05-30 01:16:00",930703,5.703,14.57,4.437,1.104,18.45,108.4356,20.88,21.93,26.9,0,110.9,13.19,21.70,336.6
"2009-05-30 01:16:30",930704,6.068,18.55,1,0.259,18.46,108.4342,20.87,21.93,25.31,0,110.9,13.19,21.70,340.5
"2009-05-30 01:17:00",930705,6.24,18.86,0.873,0.217,18.5,108.4345,20.87,21.9,24.95,0,110.9,13.19,21.70,340.9
"2009-05-30 01:17:30",930706,6.444,18.39,1.666,0.396,18.62,108.4253,20.85,21.89,24.69,0,110.9,13.19,21.68,340.4
"2009-05-30 01:18:00",930707,5.829,17.83,2.047,0.551,18.69,108.4045,20.8,21.88,24.73,0,110.9,13.19,21.62,339.8
"2009-05-30 01:18:30",930708,6.153,20.6,1.233,0.308,18.54,108.4008,20.79,21.86,25.14,0,110.9,13.19,21.61,342.6
"2009-05-30 01:19:00",930709,6.393,19.29,1.202,0.317,18.58,108.4008,20.79,21.85,24.77,0,110.9,13.19,21.61,341.3
"2009-05-30 01:19:30",930710,6.515,19.33,1.948,0.564,18.72,108.389,20.76,21.83,24.82,0,110.9,13.19,21.58,341.3
"2009-05-30 01:20:00",930711,6.778,19.37,1.525,0.351,18.79,108.3718,20.71,21.8,24.67,0,110.9,13.19,21.54,341.4
"2009-05-30 01:20:30",930712,5.339,16.16,2.018,0.826,18.44,108.3671,20.7,21.78,24.96,0,110.9,13.19,21.53,338.2
"2009-05-30 01:21:00",930713,4.891,15.4,1.847,0.504,18.32,108.3671,20.7,21.76,25.63,0,110.9,13.19,21.53,337.4
"2009-05-30 01:21:30",930714,5.636,15.73,1.58,0.482,18.39,108.3533,20.67,21.75,25.53,0,110.9,13.19,21.49,337.7
"2009-05-30 01:22:00",930715,5.716,14.79,2.162,0.583,18.52,108.3339,20.62,21.73,25.32,0,110.9,13.2,21.44,336.8
"2009-05-30 01:22:30",930716,4.683,3.477,2.882,0.56,18.41,108.3291,20.6,21.7,25.55,0,110.9,13.2,21.43,325.5
"2009-05-30 01:23:00",930717,4.552,5.959,2.945,0.79,18.36,108.3016,20.53,21.68,25.81,0,110.9,13.2,21.36,328.0
"2009-05-30 01:23:30",930718,5.71,359.2,1.692,0.366,18.32,108.2883,20.5,21.65,25.93,0,110.9,13.2,21.32,321.2
"2009-05-30 01:24:00",930719,5.503,0.33,1.993,0.436,18.22,108.265,20.44,21.61,25.83,0,110.9,13.2,21.26,322.3
"2009-05-30 01:24:30",930720,5.709,3.857,3.193,0.811,18.39,108.2376,20.37,21.58,25.66,0,110.9,13.2,21.19,325.9
"2009-05-30 01:25:00",930721,5.419,359.7,2.452,0.643,18.2,108.2179,20.32,21.52,26.08,0,110.9,13.2,21.14,321.7
"2009-05-30 01:25:30",930722,7.092,355.6,1.654,0.755,18.31,108.1949,20.26,21.47,25.98,0,110.9,13.2,21.08,317.6
"2009-05-30 01:26:00",930723,7.724,353.6,2.238,1.062,18.13,108.1641,20.18,21.42,26.89,0,110.9,13.2,21.00,315.6
"2009-05-30 01:26:30",930724,7.736,353.3,2.127,0.867,18.16,108.1368,20.11,21.38,27.27,0,110.9,13.2,20.93,315.3
"2009-05-30 01:27:00",930725,7.16,353.2,2.993,1.332,18.24,108.1131,20.05,21.33,27.47,0,110.9,13.2,20.87,315.2
"2009-05-30 01:27:30",930726,5.962,357.2,3.094,0.767,18.35,108.0943,20,21.25,26.81,0,110.9,13.2,20.82,319.2
"2009-05-30 01:28:00",930727,5.853,356.9,3.232,0.995,18.17,108.0735,19.95,21.2,27.48,0,110.9,13.2,20.77,318.9
"2009-05-30 01:28:30",930728,5.409,359.1,2.372,0.508,18.18,108.0517,19.89,21.13,27.48,0,110.9,13.21,20.71,321.1
"2009-05-30 01:29:00",930729,5.892,359.7,2.342,0.417,18.17,108.0411,19.87,21.07,27.33,0,110.9,13.21,20.69,321.7
"2009-05-30 01:29:30",930730,6.5,357.1,1.708,0.624,18.23,108.02,19.81,21.03,27.41,0,110.9,13.21,20.63,319.1
"2009-05-30 01:30:00",930731,7.917,353.2,2.836,1.108,18.28,107.9994,19.76,20.97,27.37,0,110.9,13.21,20.58,315.2
"2009-05-30 01:30:30",930732,6.781,356.3,1.521,0.542,18.16,107.99,19.73,20.93,27.7,0,110.8,13.21,20.55,318.3
"2009-05-30 01:31:00",930733,6.548,356.1,2.221,0.715,18.13,107.9653,19.67,20.89,28.12,0,110.8,13.21,20.49,318.1
"2009-05-30 01:31:30",930734,7.076,353.2,2.475,0.558,18.17,107.9574,19.65,20.81,28.24,0,110.8,13.21,20.47,315.2
"2009-05-30 01:32:00",930735,7.53,353.4,4.291,1.168,18.13,107.9314,19.58,20.79,28.69,0,110.8,13.21,20.40,315.4
"2009-05-30 01:32:30",930736,6.862,353.9,1.444,0.515,18.14,107.9261,19.57,20.74,28.77,0,110.8,13.21,20.39,315.9
"2009-05-30 01:33:00",930737,6.363,356.6,4,0.788,18.27,107.8993,19.5,20.69,28.59,0,110.8,13.21,20.32,318.6
"2009-05-30 01:33:30",930738,4.785,5.693,4.227,0.719,18.32,107.8971,19.5,20.65,27.9,0,110.8,13.21,20.32,327.7
"2009-05-30 01:34:00",930739,4.815,1.329,2.741,0.668,18.24,107.8802,19.45,20.61,27.85,0,110.8,13.21,20.27,323.3
"2009-05-30 01:34:30",930740,4.673,4.237,5.234,0.552,18.22,107.8645,19.41,20.59,28.05,0,110.8,13.2,20.23,326.2
"2009-05-30 01:35:00",930741,4.876,0.618,3.123,0.503,18.21,107.8636,19.41,20.54,28.12,0,110.8,13.21,20.23,322.6
"2009-05-30 01:35:30",930742,5.117,359.5,3.06,0.582,18.05,107.8606,19.4,20.51,28.49,0,110.8,13.21,20.22,321.5
"2009-05-30 01:36:00",930743,6.272,354.9,3.361,1.102,17.96,107.8406,19.35,20.49,28.85,0,110.8,13.21,20.17,316.9
"2009-05-30 01:36:30",930744,5.26,358,3.914,1.159,18.07,107.8299,19.32,20.46,28.73,0,110.8,13.21,20.14,320.0
"2009-05-30 01:37:00",930745,4.481,2.311,3.091,0.453,18.18,107.8288,19.32,20.44,28.58,0,110.8,13.21,20.14,324.3
"2009-05-30 01:37:30",930746,4.905,3.708,2.421,0.363,18.29,107.8153,19.29,20.39,28.29,0,110.8,13.21,20.11,325.7
"2009-05-30 01:38:00",930747,4.559,7.144,4.263,0.342,18.38,107.7973,19.24,20.37,28.11,0,110.8,13.21,20.06,329.1
"2009-05-30 01:38:30",930748,4.211,8.98,3.415,0.302,18.32,107.7961,19.24,20.36,27.84,0,110.8,13.21,20.06,331.0
"2009-05-30 01:39:00",930749,4.775,7.296,2.334,0.485,18.38,107.7961,19.24,20.34,27.82,0,110.8,13.21,20.06,329.3
"2009-05-30 01:39:30",930750,4.357,8.29,3.446,0.201,18.37,107.7961,19.24,20.32,27.72,0,110.8,13.22,20.06,330.3
"2009-05-30 01:40:00",930751,4.321,6.96,2.719,0.372,18.41,107.7961,19.24,20.3,27.61,0,110.8,13.22,20.06,329.0
"2009-05-30 01:40:30",930752,4.619,6.633,3.377,0.384,18.42,107.7945,19.23,20.3,27.64,0,110.8,13.22,20.05,328.6
"2009-05-30 01:41:00",930753,5.089,0.739,3.439,0.472,18.36,107.7897,19.22,20.28,27.74,0,110.8,13.22,20.04,322.7
"2009-05-30 01:41:30",930754,5.119,358.8,2.355,0.294,18.41,107.7863,19.21,20.28,27.64,0,110.8,13.22,20.03,320.8
"2009-05-30 01:42:00",930755,5.303,358.7,1.805,0.406,18.39,107.7926,19.23,20.28,27.64,0,110.8,13.22,20.05,320.7
"2009-05-30 01:42:30",930756,5.518,357.2,1.54,0.443,18.25,107.8,19.25,20.26,27.87,0,110.8,13.22,20.07,319.2
"2009-05-30 01:43:00",930757,6.766,353.5,2.019,0.751,18.24,107.8082,19.27,20.26,28,0,110.8,13.22,20.09,315.5
"2009-05-30 01:43:30",930758,6.407,355,2.509,0.915,18.31,107.8156,19.29,20.26,27.98,0,110.8,13.22,20.11,317.0
"2009-05-30 01:44:00",930759,7.305,352.5,3.079,1.02,18.26,107.8186,19.29,20.26,27.92,0,110.8,13.22,20.11,314.5
"2009-05-30 01:44:30",930760,6.431,354.5,2.825,0.884,18.23,107.8223,19.3,20.26,28.05,0,110.8,13.22,20.12,316.5
"2009-05-30 01:45:00",930761,5.594,357.3,2.931,0.773,18.34,107.8231,19.31,20.25,27.87,0,110.8,13.22,20.13,319.3
"2009-05-30 01:45:30",930762,6.425,355.8,2.94,1.338,18.36,107.8241,19.31,20.26,27.72,0,110.8,13.22,20.13,317.8
"2009-05-30 01:46:00",930763,5.959,356.6,3.37,0.839,18.54,107.8262,19.31,20.27,27.62,0,110.8,13.22,20.13,318.6
"2009-05-30 01:46:30",930764,7.161,353.6,4.25,1.65,18.37,107.825,19.31,20.26,27.63,0,110.8,13.23,20.13,315.6
"2009-05-30 01:47:00",930765,7.909,351.9,3.126,1.147,18.45,107.8268,19.32,20.25,27.6,0,110.8,13.23,20.13,313.9
"2009-05-30 01:47:30",930766,7.168,353.6,5.788,2.003,18.32,107.8265,19.31,20.27,27.59,0,110.8,13.23,20.13,315.6
"2009-05-30 01:48:00",930767,8.25,348.4,2.364,0.427,18.36,107.8304,19.32,20.27,27.61,0,110.8,13.23,20.14,310.4
"2009-05-30 01:48:30",930768,8.36,351.3,1.974,0.698,18.52,107.8322,19.33,20.28,27.48,0,110.8,13.23,20.15,313.3